Torna al catalogo

SPOT 1

AttivoScienzaPO
NORAD 16613·PAYLOAD·🇫🇷 France

Lanciato Feb 22, 1986 da Guiana Space Centre

Loading…

Prossimi Passaggi (prossime 24 ore)

TLE

AggiornatoSource: Space-Track

Epoca: Sep 14, 2026, 14:10 UTC

1 16613U 86019A   26257.59056896  .00001252  00000-0  18621-3 0  9992
2 16613  98.6661 196.5301 0127947 345.4660  14.2879 14.71673450824146

Traccia SPOT 1 in tempo reale con AllMySat

Download on the App Store